Location: Fort Wayne
(41.1310°N, 85.1290°W)
Time: 06:27:09
(UTC-04:00)

Cosmos 2056 Rocket - Visible Passes

Search period start: 28 July 2016 00:00
Search period end: 07 August 2016 00:00
Orbit: 743 x 800 km, 74.0° (Epoch: 27 July)

Date Brightness Start Highest point End Pass type
(mag) Time Alt. Az. Time Alt. Az. Time Alt. Az.
28 Jul 4.0 21:37:31 10° SSW 21:42:38 65° WNW 21:47:44 10° NNE visible
29 Jul 6.6 22:46:39 10° W 22:49:28 15° NW 22:52:17 10° NNW visible
30 Jul 6.7 05:49:02 10° NNE 05:52:32 18° ENE 05:56:02 10° E visible
30 Jul 6.1 22:09:11 10° WSW 22:13:14 23° WNW 22:17:17 10° N visible
31 Jul 7.2 05:14:40 10° NNE 05:16:13 11° NE 05:17:49 10° ENE visible
31 Jul 5.3 21:32:23 10° SW 21:37:07 36° WNW 21:41:50 10° N visible
02 Aug 5.7 05:42:39 10° N 05:47:11 30° ENE 05:51:45 10° ESE visible
02 Aug 6.9 22:05:24 10° W 22:07:58 14° NW 22:10:33 10° NNW visible
03 Aug 6.5 05:07:21 10° NNE 05:11:01 19° ENE 05:14:43 10° ESE visible
03 Aug 6.5 21:27:49 10° WSW 21:31:43 22° WNW 21:35:38 10° N visible
04 Aug 6.8 04:32:44 10° NNE 04:34:45 12° NE 04:36:45 10° ENE visible
05 Aug 4.5 05:36:38 10° N 05:41:43 52° ENE 05:46:50 10° SE visible
06 Aug 5.4 05:01:02 10° N 05:05:40 32° ENE 05:10:21 10° SE visible
06 Aug 6.9 21:24:10 10° W 21:26:28 13° NW 21:28:45 10° NNW visible
